289P/Blanpain (2019)

Japanese version
Home page
Updated on December 9, 2019

---------------------------------------------------------------------

* Profile

* Pictures

* Orbital Elements

Epoch 2019 Dec. 23.0 TT = JDT 2458840.5                                         
T 2019 Dec. 20.98969 TT                                 MPCW                    
q   0.9588856            (2000.0)            P               Q                  
n   0.18531573     Peri.    9.84641     +0.19558752     -0.97598832             
a   3.0469210      Node    68.92388     +0.89262824     +0.13668298             
e   0.6852936      Incl.    5.89756     +0.40615311     +0.16960118             
P   5.32                                                                        
From 329 observations 2003 Oct. 25-2019 Nov. 2, mean residual 0".7.             
     Nongravitational parameters A1 = -0.09, A2 = -0.0082.                      

* Finding Charts

* Magnitudes Graph

        H = 18.5  G = 0.15

---------------------------------------------------------------------

The orbital elements are published on M.P.E.C. 2019-W179.
The charts are made with StellaNavigator Ver.10 (AstroArts).
The magnitudes graphs are made with Comet for Windows.

---------------------------------------------------------------------

Copyright(C) Seiichi Yoshida (comet@aerith.net). All rights reserved.